Time,TemperatureF,DewpointF,PressureIn,WindDirection,WindDirectionDegrees,WindSpeedMPH,WindSpeedGustMPH,Humidity,HourlyPrecipIn,Conditions,Clouds,dailyrainin,SoftwareType,DateUTC
2013-10-31 00:00:00,71.3,-99.9,29.72,SSE,165,0.0,-999.0,74,0.00,,,0.07,WeatherSnoop3.0,2013-10-31 05:00:00,
2013-10-31 00:06:00,71.3,-99.9,29.71,SSE,165,0.0,-999.0,74,0.00,,,0.07,WeatherSnoop3.0,2013-10-31 05:06:00,
2013-10-31 00:12:00,71.3,-99.9,29.71,SSE,165,0.0,-999.0,74,0.00,,,0.07,WeatherSnoop3.0,2013-10-31 05:12:00,
2013-10-31 00:17:00,71.3,-99.9,29.73,SSE,165,0.0,-999.0,74,0.00,,,0.07,WeatherSnoop3.0,2013-10-31 05:17:00,
2013-10-31 00:22:00,71.3,-99.9,29.73,SSE,165,0.0,-999.0,74,0.00,,,0.07,WeatherSnoop3.0,2013-10-31 05:22:00,
2013-10-31 00:28:00,71.3,-99.9,29.73,SSE,165,0.0,-999.0,74,0.00,,,0.07,WeatherSnoop3.0,2013-10-31 05:28:00,
2013-10-31 00:33:00,71.3,-99.9,29.73,SSE,165,0.0,-999.0,74,0.00,,,0.07,WeatherSnoop3.0,2013-10-31 05:33:00,
2013-10-31 00:39:00,71.3,-99.9,29.73,SSE,165,0.0,-999.0,74,0.00,,,0.07,WeatherSnoop3.0,2013-10-31 05:39:00,
2013-10-31 00:44:00,71.3,-99.9,29.73,SSE,165,0.0,-999.0,74,0.00,,,0.07,WeatherSnoop3.0,2013-10-31 05:44:00,
2013-10-31 00:50:00,71.3,-99.9,29.72,SSE,165,0.0,-999.0,74,0.00,,,0.07,WeatherSnoop3.0,2013-10-31 05:50:00,
2013-10-31 00:56:00,71.3,-99.9,29.72,SSE,165,0.0,-999.0,74,0.00,,,0.07,WeatherSnoop3.0,2013-10-31 05:56:00,
2013-10-31 01:01:00,71.3,-99.9,29.72,SSE,165,0.0,-999.0,74,0.00,,,0.07,WeatherSnoop3.0,2013-10-31 06:01:00,
2013-10-31 01:07:00,71.3,-99.9,29.72,SSE,165,0.0,-999.0,74,0.00,,,0.00,WeatherSnoop3.0,2013-10-31 06:07:00,
2013-10-31 01:13:00,71.3,-99.9,29.72,SSE,165,0.0,-999.0,74,0.00,,,0.00,WeatherSnoop3.0,2013-10-31 06:13:00,
2013-10-31 01:18:00,71.3,-99.9,29.72,SSE,165,0.0,-999.0,74,0.00,,,0.00,WeatherSnoop3.0,2013-10-31 06:18:00,
2013-10-31 01:24:00,71.3,-99.9,29.72,SSE,165,0.0,-999.0,74,0.00,,,0.00,WeatherSnoop3.0,2013-10-31 06:24:00,
2013-10-31 01:29:00,71.3,-99.9,29.72,SSE,165,0.0,-999.0,74,0.00,,,0.00,WeatherSnoop3.0,2013-10-31 06:29:00,
2013-10-31 01:35:00,71.3,-99.9,29.71,SSE,165,0.0,-999.0,74,0.00,,,0.00,WeatherSnoop3.0,2013-10-31 06:35:00,
2013-10-31 01:40:00,71.3,-99.9,29.71,SSE,165,0.0,-999.0,74,0.00,,,0.00,WeatherSnoop3.0,2013-10-31 06:40:00,
2013-10-31 01:45:00,71.3,-99.9,29.71,SSE,165,0.0,-999.0,74,0.00,,,0.00,WeatherSnoop3.0,2013-10-31 06:45:00,
2013-10-31 01:51:00,71.3,-99.9,29.71,SSE,165,0.0,-999.0,74,0.00,,,0.00,WeatherSnoop3.0,2013-10-31 06:51:00,
2013-10-31 01:56:00,71.3,-99.9,29.71,SSE,165,0.0,-999.0,74,0.00,,,0.00,WeatherSnoop3.0,2013-10-31 06:56:00,
2013-10-31 02:02:00,71.3,-99.9,29.72,SSE,165,0.0,-999.0,74,0.00,,,0.00,WeatherSnoop3.0,2013-10-31 07:02:00,
2013-10-31 02:08:00,71.3,-99.9,29.72,SSE,165,0.0,-999.0,74,0.00,,,0.00,WeatherSnoop3.0,2013-10-31 07:08:00,
2013-10-31 02:14:00,71.3,-99.9,29.72,SSE,165,0.0,-999.0,74,0.00,,,0.00,WeatherSnoop3.0,2013-10-31 07:14:00,
2013-10-31 02:20:00,71.3,-99.9,29.74,SSE,165,0.0,-999.0,74,0.00,,,0.00,WeatherSnoop3.0,2013-10-31 07:20:00,
2013-10-31 02:25:00,71.3,-99.9,29.74,SSE,165,0.0,-999.0,74,0.00,,,0.00,WeatherSnoop3.0,2013-10-31 07:25:00,
2013-10-31 02:31:00,71.3,-99.9,29.74,SSE,165,0.0,-999.0,74,0.00,,,0.00,WeatherSnoop3.0,2013-10-31 07:31:00,
2013-10-31 02:36:00,71.3,-99.9,29.73,SSE,165,0.0,-999.0,74,0.00,,,0.00,WeatherSnoop3.0,2013-10-31 07:36:00,
2013-10-31 02:42:00,71.3,-99.9,29.73,SSE,165,0.0,-999.0,74,0.00,,,0.00,WeatherSnoop3.0,2013-10-31 07:42:00,
2013-10-31 02:47:00,71.3,-99.9,29.74,SSE,165,0.0,-999.0,74,0.00,,,0.00,WeatherSnoop3.0,2013-10-31 07:47:00,
2013-10-31 02:53:00,71.3,-99.9,29.74,SSE,165,0.0,-999.0,74,0.00,,,0.00,WeatherSnoop3.0,2013-10-31 07:53:00,
2013-10-31 02:58:00,71.3,-99.9,29.74,SSE,165,0.0,-999.0,74,0.00,,,0.00,WeatherSnoop3.0,2013-10-31 07:58:00,
2013-10-31 03:04:00,71.3,-99.9,29.73,SSE,165,0.0,-999.0,74,0.00,,,0.00,WeatherSnoop3.0,2013-10-31 08:04:00,
2013-10-31 03:09:00,71.3,-99.9,29.73,SSE,165,0.0,-999.0,74,0.00,,,0.00,WeatherSnoop3.0,2013-10-31 08:09:00,
2013-10-31 03:15:00,71.3,-99.9,29.73,SSE,165,0.0,-999.0,74,0.00,,,0.00,WeatherSnoop3.0,2013-10-31 08:15:00,
2013-10-31 03:21:00,64.5,-99.9,29.71,SE,124,0.0,-999.0,74,0.00,,,0.00,WeatherSnoop3.0,2013-10-31 08:21:00,
2013-10-31 03:26:00,64.5,-99.9,29.71,SE,124,0.0,-999.0,74,0.00,,,0.00,WeatherSnoop3.0,2013-10-31 08:26:00,
2013-10-31 03:32:00,64.5,-99.9,29.68,SE,124,0.0,-999.0,74,0.00,,,0.00,WeatherSnoop3.0,2013-10-31 08:32:00,
2013-10-31 03:38:00,64.5,-99.9,29.68,SE,124,0.0,-999.0,74,0.00,,,0.00,WeatherSnoop3.0,2013-10-31 08:38:00,
2013-10-31 03:43:00,64.5,-99.9,29.68,South,169,0.0,-999.0,74,0.00,,,0.00,WeatherSnoop3.0,2013-10-31 08:43:00,
2013-10-31 03:48:00,64.2,-99.9,29.69,SW,236,1.0,-999.0,74,0.00,,,0.00,WeatherSnoop3.0,2013-10-31 08:48:00,
2013-10-31 03:54:00,64.2,-99.9,29.69,SW,236,1.0,-999.0,74,0.00,,,0.00,WeatherSnoop3.0,2013-10-31 08:54:00,
2013-10-31 03:59:00,64.2,-99.9,29.69,South,176,2.0,-999.0,74,0.00,,,0.00,WeatherSnoop3.0,2013-10-31 08:59:00,
2013-10-31 04:04:00,64.2,60.9,29.71,SSE,161,3.0,-999.0,89,0.00,,,0.00,WeatherSnoop3.0,2013-10-31 09:04:00,
2013-10-31 04:10:00,64.2,60.9,29.71,SSE,161,3.0,-999.0,89,0.00,,,0.00,WeatherSnoop3.0,2013-10-31 09:10:00,
2013-10-31 04:16:00,62.9,59.6,29.68,ESE,104,0.0,-999.0,89,0.00,,,0.00,WeatherSnoop3.0,2013-10-31 09:16:00,
2013-10-31 04:21:00,62.9,59.6,29.68,ESE,102,1.0,-999.0,89,0.00,,,0.00,WeatherSnoop3.0,2013-10-31 09:21:00,
2013-10-31 04:26:00,62.6,59.3,29.68,SE,128,1.0,-999.0,89,0.00,,,0.00,WeatherSnoop3.0,2013-10-31 09:26:00,
2013-10-31 04:32:00,62.4,59.1,29.69,South,184,0.0,-999.0,89,0.00,,,0.00,WeatherSnoop3.0,2013-10-31 09:32:00,
2013-10-31 04:38:00,62.4,59.1,29.69,South,171,2.0,-999.0,89,0.00,,,0.00,WeatherSnoop3.0,2013-10-31 09:38:00,
2013-10-31 04:44:00,62.1,58.8,29.69,South,172,1.0,-999.0,89,0.00,,,0.00,WeatherSnoop3.0,2013-10-31 09:44:00,
2013-10-31 04:50:00,62.1,58.8,29.68,SW,217,1.0,-999.0,89,0.00,,,0.00,WeatherSnoop3.0,2013-10-31 09:50:00,
2013-10-31 04:55:00,62.1,58.8,29.68,SSW,203,1.0,-999.0,89,0.00,,,0.27,WeatherSnoop3.0,2013-10-31 09:55:00,
2013-10-31 05:00:00,62.0,58.7,29.68,SSW,203,0.0,-999.0,89,0.00,,,0.27,WeatherSnoop3.0,2013-10-31 10:00:00,
2013-10-31 05:05:00,62.0,58.7,29.68,SSW,203,0.0,-999.0,89,0.00,,,0.27,WeatherSnoop3.0,2013-10-31 10:05:00,
2013-10-31 05:11:00,62.0,58.7,29.68,SSW,203,0.0,-999.0,89,0.00,,,0.27,WeatherSnoop3.0,2013-10-31 10:11:00,
2013-10-31 05:17:00,61.6,58.9,29.68,SSW,212,0.0,-999.0,91,0.00,,,0.27,WeatherSnoop3.0,2013-10-31 10:17:00,
2013-10-31 05:22:00,61.6,58.9,29.68,SSW,212,0.0,-999.0,91,0.00,,,0.27,WeatherSnoop3.0,2013-10-31 10:22:00,
2013-10-31 05:27:00,61.6,58.9,29.68,SW,226,1.0,-999.0,91,0.00,,,0.27,WeatherSnoop3.0,2013-10-31 10:27:00,
2013-10-31 05:33:00,61.6,58.9,29.68,SW,226,0.0,-999.0,91,0.00,,,0.27,WeatherSnoop3.0,2013-10-31 10:33:00,
2013-10-31 05:38:00,61.6,58.9,29.68,SW,226,0.0,-999.0,91,0.00,,,0.27,WeatherSnoop3.0,2013-10-31 10:38:00,
2013-10-31 05:44:00,61.6,58.9,29.68,NW,318,0.0,-999.0,91,0.00,,,0.27,WeatherSnoop3.0,2013-10-31 10:44:00,
2013-10-31 05:49:00,61.5,58.8,29.68,WNW,282,1.0,-999.0,91,0.00,,,0.27,WeatherSnoop3.0,2013-10-31 10:49:00,
2013-10-31 05:55:00,61.3,58.6,29.68,WNW,299,1.0,-999.0,91,0.00,,,0.27,WeatherSnoop3.0,2013-10-31 10:55:00,
2013-10-31 06:00:00,61.3,58.6,29.68,NW,322,0.0,-999.0,91,0.00,,,0.27,WeatherSnoop3.0,2013-10-31 11:00:00,
2013-10-31 06:05:00,61.3,58.6,29.69,NW,318,1.0,-999.0,91,0.00,,,0.27,WeatherSnoop3.0,2013-10-31 11:05:00,
2013-10-31 06:10:00,61.3,58.6,29.69,NW,316,1.0,-999.0,91,0.00,,,0.27,WeatherSnoop3.0,2013-10-31 11:10:00,
2013-10-31 06:15:00,61.3,58.6,29.69,NW,312,0.0,-999.0,91,0.00,,,0.27,WeatherSnoop3.0,2013-10-31 11:15:00,
2013-10-31 06:21:00,61.2,58.5,29.70,NW,319,2.0,-999.0,91,0.00,,,0.27,WeatherSnoop3.0,2013-10-31 11:21:00,
2013-10-31 06:26:00,61.2,58.5,29.70,NW,312,2.0,-999.0,91,0.00,,,0.27,WeatherSnoop3.0,2013-10-31 11:26:00,
2013-10-31 06:32:00,61.2,58.5,29.72,WNW,302,2.0,-999.0,91,0.00,,,0.27,WeatherSnoop3.0,2013-10-31 11:32:00,
2013-10-31 06:38:00,61.2,58.5,29.72,WNW,285,1.0,-999.0,91,0.00,,,0.27,WeatherSnoop3.0,2013-10-31 11:38:00,
2013-10-31 06:43:00,61.2,58.5,29.72,NW,315,3.0,-999.0,91,0.00,,,0.27,WeatherSnoop3.0,2013-10-31 11:43:00,
2013-10-31 06:48:00,61.2,58.5,29.72,WSW,253,1.0,-999.0,91,0.00,,,0.27,WeatherSnoop3.0,2013-10-31 11:48:00,
2013-10-31 06:54:00,61.2,58.5,29.72,SSW,202,3.0,-999.0,91,0.00,,,0.27,WeatherSnoop3.0,2013-10-31 11:54:00,
2013-10-31 06:59:00,61.2,58.5,29.72,SW,217,1.0,-999.0,91,0.00,,,0.27,WeatherSnoop3.0,2013-10-31 11:59:00,
2013-10-31 07:04:00,61.3,58.6,29.70,West,270,1.0,-999.0,91,0.00,,,0.27,WeatherSnoop3.0,2013-10-31 12:04:00,
2013-10-31 07:09:00,61.2,58.5,29.70,West,270,0.0,-999.0,91,0.00,,,0.27,WeatherSnoop3.0,2013-10-31 12:09:00,
2013-10-31 07:15:00,61.2,58.5,29.70,WNW,302,0.0,-999.0,91,0.00,,,0.27,WeatherSnoop3.0,2013-10-31 12:15:00,
2013-10-31 07:20:00,61.2,58.5,29.70,WNW,302,1.0,-999.0,91,0.00,,,0.27,WeatherSnoop3.0,2013-10-31 12:20:00,
2013-10-31 07:25:00,61.2,58.2,29.70,WNW,296,2.0,-999.0,90,0.00,,,0.27,WeatherSnoop3.0,2013-10-31 12:25:00,
2013-10-31 07:30:00,61.2,58.2,29.70,WNW,296,4.0,-999.0,90,0.00,,,0.27,WeatherSnoop3.0,2013-10-31 12:30:00,
2013-10-31 07:35:00,61.0,58.0,29.72,NNW,332,0.0,-999.0,90,0.00,,,0.27,WeatherSnoop3.0,2013-10-31 12:35:00,
2013-10-31 07:41:00,60.9,57.9,29.72,WSW,250,1.0,-999.0,90,0.00,,,0.27,WeatherSnoop3.0,2013-10-31 12:41:00,
2013-10-31 07:47:00,60.7,57.7,29.72,NW,322,0.0,-999.0,90,0.00,,,0.27,WeatherSnoop3.0,2013-10-31 12:47:00,
2013-10-31 07:52:00,60.7,57.7,29.72,NW,323,2.0,-999.0,90,0.00,,,0.27,WeatherSnoop3.0,2013-10-31 12:52:00,
2013-10-31 07:58:00,60.7,57.7,29.72,NW,308,2.0,-999.0,90,0.00,,,0.27,WeatherSnoop3.0,2013-10-31 12:58:00,
2013-10-31 08:03:00,60.5,57.5,29.73,WNW,295,3.0,-999.0,90,0.00,,,0.27,WeatherSnoop3.0,2013-10-31 13:03:00,
2013-10-31 08:08:00,60.5,57.5,29.73,WNW,298,0.0,-999.0,90,0.00,,,0.27,WeatherSnoop3.0,2013-10-31 13:08:00,
2013-10-31 08:14:00,60.5,57.5,29.73,NW,305,1.0,-999.0,90,0.00,,,0.27,WeatherSnoop3.0,2013-10-31 13:14:00,
2013-10-31 08:19:00,60.7,57.7,29.75,NW,304,0.0,-999.0,90,0.00,,,0.27,WeatherSnoop3.0,2013-10-31 13:19:00,
2013-10-31 08:25:00,60.7,57.7,29.75,NW,305,1.0,-999.0,90,0.00,,,0.27,WeatherSnoop3.0,2013-10-31 13:25:00,
2013-10-31 08:31:00,61.0,58.0,29.75,North,354,1.0,-999.0,90,0.00,,,0.27,WeatherSnoop3.0,2013-10-31 13:31:00,
2013-10-31 08:37:00,61.0,58.0,29.75,NNW,332,3.0,-999.0,90,0.00,,,0.27,WeatherSnoop3.0,2013-10-31 13:37:00,
2013-10-31 08:42:00,61.0,58.0,29.75,WNW,296,3.0,-999.0,90,0.00,,,0.27,WeatherSnoop3.0,2013-10-31 13:42:00,
2013-10-31 08:47:00,61.0,58.0,29.76,WNW,296,3.0,-999.0,90,0.00,,,0.27,WeatherSnoop3.0,2013-10-31 13:47:00,
2013-10-31 08:53:00,61.0,58.0,29.76,NW,325,2.0,-999.0,90,0.00,,,0.27,WeatherSnoop3.0,2013-10-31 13:53:00,
2013-10-31 08:59:00,62.1,59.1,29.76,WNW,292,3.0,-999.0,90,0.00,,,0.27,WeatherSnoop3.0,2013-10-31 13:59:00,
2013-10-31 09:05:00,62.1,59.1,29.77,WNW,292,3.0,-999.0,90,0.00,,,0.27,WeatherSnoop3.0,2013-10-31 14:05:00,
2013-10-31 09:10:00,62.1,58.5,29.77,NW,311,4.0,-999.0,88,0.00,,,0.27,WeatherSnoop3.0,2013-10-31 14:10:00,
2013-10-31 09:16:00,62.6,59.0,29.78,NW,306,1.0,-999.0,88,0.00,,,0.27,WeatherSnoop3.0,2013-10-31 14:16:00,
2013-10-31 09:21:00,62.7,59.1,29.78,WNW,295,0.0,-999.0,88,0.00,,,0.27,WeatherSnoop3.0,2013-10-31 14:21:00,
2013-10-31 09:26:00,62.7,59.1,29.78,NNW,332,1.0,-999.0,88,0.00,,,0.27,WeatherSnoop3.0,2013-10-31 14:26:00,
2013-10-31 09:31:00,62.9,59.3,29.78,NW,323,1.0,-999.0,88,0.00,,,0.27,WeatherSnoop3.0,2013-10-31 14:31:00,
2013-10-31 09:36:00,62.9,59.3,29.78,WNW,302,1.0,-999.0,88,0.00,,,0.27,WeatherSnoop3.0,2013-10-31 14:36:00,
2013-10-31 09:41:00,62.9,59.3,29.78,WSW,253,1.0,-999.0,88,0.00,,,0.27,WeatherSnoop3.0,2013-10-31 14:41:00,
2013-10-31 09:47:00,65.0,61.4,29.79,North,353,0.0,-999.0,88,0.00,,,0.27,WeatherSnoop3.0,2013-10-31 14:47:00,
2013-10-31 09:52:00,65.6,61.9,29.79,WNW,292,0.0,-999.0,88,0.00,,,0.27,WeatherSnoop3.0,2013-10-31 14:52:00,
2013-10-31 09:58:00,66.1,59.0,29.79,WNW,301,1.0,-999.0,78,0.00,,,0.27,WeatherSnoop3.0,2013-10-31 14:58:00,
2013-10-31 10:03:00,66.8,60.1,29.78,WNW,295,1.0,-999.0,79,0.00,,,0.27,WeatherSnoop3.0,2013-10-31 15:03:00,
2013-10-31 10:08:00,67.4,59.6,29.78,West,260,1.0,-999.0,76,0.00,,,0.27,WeatherSnoop3.0,2013-10-31 15:08:00,
2013-10-31 10:14:00,67.9,58.9,29.78,West,265,2.0,-999.0,73,0.00,,,0.27,WeatherSnoop3.0,2013-10-31 15:14:00,
2013-10-31 10:20:00,68.6,59.2,29.78,NW,312,3.0,-999.0,72,0.00,,,0.27,WeatherSnoop3.0,2013-10-31 15:20:00,
2013-10-31 10:25:00,68.9,59.5,29.78,WNW,295,7.0,-999.0,72,0.00,,,0.27,WeatherSnoop3.0,2013-10-31 15:25:00,
2013-10-31 10:30:00,69.3,55.7,29.78,NW,316,6.0,-999.0,62,0.00,,,0.27,WeatherSnoop3.0,2013-10-31 15:30:00,
2013-10-31 10:35:00,69.3,54.8,29.78,NNW,342,2.0,-999.0,60,0.00,,,0.27,WeatherSnoop3.0,2013-10-31 15:35:00,
2013-10-31 10:41:00,69.4,54.0,29.78,North,353,3.0,-999.0,58,0.00,,,0.27,WeatherSnoop3.0,2013-10-31 15:41:00,
2013-10-31 10:46:00,69.6,54.6,29.78,North,359,3.0,-999.0,59,0.00,,,0.27,WeatherSnoop3.0,2013-10-31 15:46:00,
2013-10-31 10:52:00,69.9,55.4,29.78,NW,308,6.0,-999.0,60,0.00,,,0.27,WeatherSnoop3.0,2013-10-31 15:52:00,
2013-10-31 10:57:00,70.3,54.3,29.78,WNW,302,7.0,-999.0,57,0.00,,,0.27,WeatherSnoop3.0,2013-10-31 15:57:00,
2013-10-31 11:03:00,70.1,53.7,29.78,NW,319,6.0,-999.0,56,0.00,,,0.27,WeatherSnoop3.0,2013-10-31 16:03:00,
2013-10-31 11:09:00,69.9,53.0,29.78,WNW,289,7.0,-999.0,55,0.00,,,0.27,WeatherSnoop3.0,2013-10-31 16:09:00,
2013-10-31 11:15:00,69.8,52.4,29.78,NNE,14,5.0,-999.0,54,0.00,,,0.27,WeatherSnoop3.0,2013-10-31 16:15:00,
2013-10-31 11:20:00,69.6,54.2,29.78,NNW,336,2.0,-999.0,58,0.00,,,0.27,WeatherSnoop3.0,2013-10-31 16:20:00,
2013-10-31 11:26:00,69.9,53.0,29.78,North,4,6.0,-999.0,55,0.00,,,0.27,WeatherSnoop3.0,2013-10-31 16:26:00,
2013-10-31 11:31:00,70.1,51.6,29.78,NNW,328,6.0,-999.0,52,0.00,,,0.27,WeatherSnoop3.0,2013-10-31 16:31:00,
2013-10-31 11:37:00,70.6,54.1,29.78,NW,306,1.0,-999.0,56,0.00,,,0.27,WeatherSnoop3.0,2013-10-31 16:37:00,
2013-10-31 11:43:00,70.6,51.6,29.78,NW,306,7.0,-999.0,51,0.00,,,0.27,WeatherSnoop3.0,2013-10-31 16:43:00,
2013-10-31 11:49:00,70.4,49.2,29.78,NW,304,7.0,-999.0,47,0.00,,,0.27,WeatherSnoop3.0,2013-10-31 16:49:00,
2013-10-31 11:54:00,70.4,48.6,29.78,NW,323,13.0,-999.0,46,0.00,,,0.27,WeatherSnoop3.0,2013-10-31 16:54:00,
2013-10-31 12:00:00,70.3,42.8,29.78,NW,319,8.0,-999.0,37,0.00,,,0.27,WeatherSnoop3.0,2013-10-31 17:00:00,
2013-10-31 12:06:00,70.1,42.6,29.78,WNW,285,8.0,-999.0,37,0.00,,,0.27,WeatherSnoop3.0,2013-10-31 17:06:00,
2013-10-31 12:11:00,70.1,42.6,29.78,North,350,2.0,-999.0,37,0.00,,,0.27,WeatherSnoop3.0,2013-10-31 17:11:00,
2013-10-31 12:16:00,70.6,43.7,29.78,NW,323,6.0,-999.0,38,0.00,,,0.27,WeatherSnoop3.0,2013-10-31 17:16:00,
2013-10-31 12:22:00,70.4,42.9,29.78,WNW,282,7.0,-999.0,37,0.00,,,0.27,WeatherSnoop3.0,2013-10-31 17:22:00,
2013-10-31 12:27:00,70.3,39.8,29.78,WNW,299,3.0,-999.0,33,0.00,,,0.27,WeatherSnoop3.0,2013-10-31 17:27:00,
2013-10-31 12:33:00,70.3,42.1,29.78,WNW,292,3.0,-999.0,36,0.00,,,0.27,WeatherSnoop3.0,2013-10-31 17:33:00,
2013-10-31 12:38:00,70.4,42.2,29.78,NW,325,6.0,-999.0,36,0.00,,,0.27,WeatherSnoop3.0,2013-10-31 17:38:00,
2013-10-31 12:44:00,70.9,44.0,29.78,North,0,5.0,-999.0,38,0.00,,,0.27,WeatherSnoop3.0,2013-10-31 17:44:00,
2013-10-31 12:50:00,70.9,39.6,29.77,NNW,330,3.0,-999.0,32,0.00,,,0.27,WeatherSnoop3.0,2013-10-31 17:50:00,
2013-10-31 12:55:00,71.1,36.3,29.77,WNW,294,5.0,-999.0,28,0.00,,,0.27,WeatherSnoop3.0,2013-10-31 17:55:00,
2013-10-31 13:00:00,71.1,37.2,29.77,NW,316,6.0,-999.0,29,0.00,,,0.27,WeatherSnoop3.0,2013-10-31 18:00:00,
2013-10-31 13:06:00,70.9,34.3,29.77,NW,320,5.0,-999.0,26,0.00,,,0.27,WeatherSnoop3.0,2013-10-31 18:06:00,
2013-10-31 13:11:00,70.8,33.2,29.77,NNE,20,13.0,-999.0,25,0.00,,,0.27,WeatherSnoop3.0,2013-10-31 18:11:00,
2013-10-31 13:17:00,70.6,33.1,29.76,WNW,302,6.0,-999.0,25,0.00,,,0.27,WeatherSnoop3.0,2013-10-31 18:17:00,
2013-10-31 13:23:00,70.6,32.1,29.76,WNW,298,7.0,-999.0,24,0.00,,,0.27,WeatherSnoop3.0,2013-10-31 18:23:00,
2013-10-31 13:28:00,70.8,32.2,29.76,NW,309,11.0,-999.0,24,0.00,,,0.27,WeatherSnoop3.0,2013-10-31 18:28:00,
2013-10-31 13:33:00,71.3,32.6,29.76,West,268,7.0,-999.0,24,0.00,,,0.27,WeatherSnoop3.0,2013-10-31 18:33:00,
2013-10-31 13:39:00,71.3,33.7,29.76,WNW,296,10.0,-999.0,25,0.00,,,0.27,WeatherSnoop3.0,2013-10-31 18:39:00,
2013-10-31 13:44:00,70.8,31.2,29.76,NW,318,11.0,-999.0,23,0.00,,,0.27,WeatherSnoop3.0,2013-10-31 18:44:00,
2013-10-31 13:49:00,70.4,30.8,29.76,NW,323,6.0,-999.0,23,0.00,,,0.27,WeatherSnoop3.0,2013-10-31 18:49:00,
2013-10-31 13:55:00,70.4,30.8,29.76,North,352,8.0,-999.0,23,0.00,,,0.27,WeatherSnoop3.0,2013-10-31 18:55:00,
2013-10-31 14:00:00,70.8,31.2,29.76,North,359,7.0,-999.0,23,0.00,,,0.27,WeatherSnoop3.0,2013-10-31 19:00:00,
2013-10-31 14:05:00,70.9,31.3,29.75,SW,236,8.0,-999.0,23,0.00,,,0.27,WeatherSnoop3.0,2013-10-31 19:05:00,
2013-10-31 14:10:00,70.9,33.3,29.75,NW,308,2.0,-999.0,25,0.00,,,0.27,WeatherSnoop3.0,2013-10-31 19:10:00,
2013-10-31 14:16:00,71.1,31.4,29.75,NW,313,13.0,-999.0,23,0.00,,,0.27,WeatherSnoop3.0,2013-10-31 19:16:00,
2013-10-31 14:22:00,70.8,30.1,29.75,NW,326,9.0,-999.0,22,0.00,,,0.27,WeatherSnoop3.0,2013-10-31 19:22:00,
2013-10-31 14:27:00,70.8,33.2,29.75,NW,316,10.0,-999.0,25,0.00,,,0.27,WeatherSnoop3.0,2013-10-31 19:27:00,
2013-10-31 14:32:00,70.9,32.3,29.75,WNW,296,5.0,-999.0,24,0.00,,,0.27,WeatherSnoop3.0,2013-10-31 19:32:00,
2013-10-31 14:38:00,70.8,32.2,29.75,NNW,333,6.0,-999.0,24,0.00,,,0.27,WeatherSnoop3.0,2013-10-31 19:38:00,
2013-10-31 14:43:00,70.6,31.0,29.75,NNW,328,12.0,-999.0,23,0.00,,,0.27,WeatherSnoop3.0,2013-10-31 19:43:00,
2013-10-31 14:48:00,70.4,26.2,29.75,NNW,333,13.0,-999.0,19,0.00,,,0.27,WeatherSnoop3.0,2013-10-31 19:48:00,
2013-10-31 14:54:00,70.6,33.1,29.75,WNW,296,3.0,-999.0,25,0.00,,,0.27,WeatherSnoop3.0,2013-10-31 19:54:00,
2013-10-31 14:59:00,70.9,27.8,29.75,SW,215,7.0,-999.0,20,0.00,,,0.27,WeatherSnoop3.0,2013-10-31 19:59:00,
2013-10-31 15:04:00,71.3,28.2,29.74,NW,318,6.0,-999.0,20,0.00,,,0.27,WeatherSnoop3.0,2013-10-31 20:04:00,
2013-10-31 15:10:00,71.1,26.7,29.74,NW,313,11.0,-999.0,19,0.00,,,0.27,WeatherSnoop3.0,2013-10-31 20:10:00,
2013-10-31 15:15:00,70.9,29.0,29.74,NW,313,2.0,-999.0,21,0.00,,,0.27,WeatherSnoop3.0,2013-10-31 20:15:00,
2013-10-31 15:20:00,70.9,30.2,29.74,North,359,5.0,-999.0,22,0.00,,,0.27,WeatherSnoop3.0,2013-10-31 20:20:00,
2013-10-31 15:26:00,70.9,30.2,29.74,WNW,299,2.0,-999.0,22,0.00,,,0.27,WeatherSnoop3.0,2013-10-31 20:26:00,
2013-10-31 15:31:00,70.8,27.7,29.74,NNW,330,5.0,-999.0,20,0.00,,,0.27,WeatherSnoop3.0,2013-10-31 20:31:00,
2013-10-31 15:37:00,70.6,28.8,29.74,NNW,337,7.0,-999.0,21,0.00,,,0.27,WeatherSnoop3.0,2013-10-31 20:37:00,
2013-10-31 15:42:00,70.9,29.0,29.74,North,8,8.0,-999.0,21,0.00,,,0.27,WeatherSnoop3.0,2013-10-31 20:42:00,
2013-10-31 15:47:00,70.9,29.0,29.74,North,352,12.0,-999.0,21,0.00,,,0.27,WeatherSnoop3.0,2013-10-31 20:47:00,
2013-10-31 15:52:00,70.8,27.7,29.74,NNW,332,6.0,-999.0,20,0.00,,,0.27,WeatherSnoop3.0,2013-10-31 20:52:00,
2013-10-31 15:57:00,70.6,27.6,29.74,North,359,7.0,-999.0,20,0.00,,,0.27,WeatherSnoop3.0,2013-10-31 20:57:00,
2013-10-31 16:03:00,70.4,27.4,29.74,NNW,344,7.0,-999.0,20,0.00,,,0.27,WeatherSnoop3.0,2013-10-31 21:03:00,
2013-10-31 16:09:00,70.4,27.4,29.74,NNW,333,10.0,-999.0,20,0.00,,,0.27,WeatherSnoop3.0,2013-10-31 21:09:00,
2013-10-31 16:14:00,70.4,29.7,29.74,North,349,6.0,-999.0,22,0.00,,,0.27,WeatherSnoop3.0,2013-10-31 21:14:00,
2013-10-31 16:19:00,70.4,28.6,29.74,North,359,2.0,-999.0,21,0.00,,,0.27,WeatherSnoop3.0,2013-10-31 21:19:00,
2013-10-31 16:25:00,70.6,28.8,29.74,NW,319,3.0,-999.0,21,0.00,,,0.27,WeatherSnoop3.0,2013-10-31 21:25:00,
2013-10-31 16:30:00,70.6,27.6,29.74,NW,308,3.0,-999.0,20,0.00,,,0.27,WeatherSnoop3.0,2013-10-31 21:30:00,
2013-10-31 16:35:00,70.1,25.9,29.74,North,350,5.0,-999.0,19,0.00,,,0.27,WeatherSnoop3.0,2013-10-31 21:35:00,
2013-10-31 16:41:00,70.1,30.6,29.74,NW,319,7.0,-999.0,23,0.00,,,0.27,WeatherSnoop3.0,2013-10-31 21:41:00,
2013-10-31 16:47:00,70.1,29.5,29.74,West,281,8.0,-999.0,22,0.00,,,0.27,WeatherSnoop3.0,2013-10-31 21:47:00,
2013-10-31 16:52:00,70.1,27.2,29.74,NNW,335,4.0,-999.0,20,0.00,,,0.27,WeatherSnoop3.0,2013-10-31 21:52:00,
2013-10-31 16:57:00,70.3,27.3,29.74,NW,316,4.0,-999.0,20,0.00,,,0.27,WeatherSnoop3.0,2013-10-31 21:57:00,
2013-10-31 17:03:00,70.1,25.9,29.74,NW,319,6.0,-999.0,19,0.00,,,0.27,WeatherSnoop3.0,2013-10-31 22:03:00,
2013-10-31 17:08:00,70.1,29.5,29.74,NNE,17,4.0,-999.0,22,0.00,,,0.27,WeatherSnoop3.0,2013-10-31 22:08:00,
2013-10-31 17:13:00,70.1,30.6,29.74,NNW,329,2.0,-999.0,23,0.00,,,0.27,WeatherSnoop3.0,2013-10-31 22:13:00,
2013-10-31 17:19:00,69.9,28.2,29.75,NW,323,0.0,-999.0,21,0.00,,,0.27,WeatherSnoop3.0,2013-10-31 22:19:00,
2013-10-31 17:25:00,69.9,30.4,29.75,NW,323,1.0,-999.0,23,0.00,,,0.27,WeatherSnoop3.0,2013-10-31 22:25:00,
2013-10-31 17:30:00,69.6,29.1,29.75,WNW,299,2.0,-999.0,22,0.00,,,0.27,WeatherSnoop3.0,2013-10-31 22:30:00,
2013-10-31 17:36:00,69.3,29.9,29.75,NNW,337,1.0,-999.0,23,0.00,,,0.27,WeatherSnoop3.0,2013-10-31 22:36:00,
2013-10-31 17:42:00,68.8,29.5,29.75,West,281,2.0,-999.0,23,0.00,,,0.27,WeatherSnoop3.0,2013-10-31 22:42:00,
2013-10-31 17:47:00,68.6,28.2,29.75,WNW,302,1.0,-999.0,22,0.00,,,0.27,WeatherSnoop3.0,2013-10-31 22:47:00,
2013-10-31 17:53:00,68.6,29.3,29.75,NW,323,2.0,-999.0,23,0.00,,,0.27,WeatherSnoop3.0,2013-10-31 22:53:00,
2013-10-31 17:59:00,68.3,29.1,29.75,NW,313,3.0,-999.0,23,0.00,,,0.27,WeatherSnoop3.0,2013-10-31 22:59:00,
2013-10-31 18:04:00,68.3,29.1,29.75,NW,320,0.0,-999.0,23,0.00,,,0.27,WeatherSnoop3.0,2013-10-31 23:04:00,
2013-10-31 18:09:00,68.3,29.1,29.75,NW,319,0.0,-999.0,23,0.00,,,0.27,WeatherSnoop3.0,2013-10-31 23:09:00,
2013-10-31 18:15:00,68.1,28.9,29.75,NNW,332,0.0,-999.0,23,0.00,,,0.27,WeatherSnoop3.0,2013-10-31 23:15:00,
2013-10-31 18:20:00,67.8,29.7,29.76,NW,323,1.0,-999.0,24,0.00,,,0.27,WeatherSnoop3.0,2013-10-31 23:20:00,
2013-10-31 18:26:00,67.3,31.2,29.76,NW,323,0.0,-999.0,26,0.00,,,0.27,WeatherSnoop3.0,2013-10-31 23:26:00,
2013-10-31 18:31:00,66.6,30.6,29.77,NW,323,0.0,-999.0,26,0.00,,,0.27,WeatherSnoop3.0,2013-10-31 23:31:00,
2013-10-31 18:36:00,65.6,29.8,29.77,NW,323,0.0,-999.0,26,0.00,,,0.27,WeatherSnoop3.0,2013-10-31 23:36:00,
2013-10-31 18:42:00,64.3,32.2,29.77,NW,323,0.0,-999.0,30,0.00,,,0.27,WeatherSnoop3.0,2013-10-31 23:42:00,
2013-10-31 18:48:00,62.9,29.3,29.77,NW,323,0.0,-999.0,28,0.00,,,0.27,WeatherSnoop3.0,2013-10-31 23:48:00,
2013-10-31 18:53:00,62.1,28.6,29.77,NW,323,0.0,-999.0,28,0.00,,,0.27,WeatherSnoop3.0,2013-10-31 23:53:00,
2013-10-31 18:58:00,61.2,31.1,29.77,NW,323,0.0,-999.0,32,0.00,,,0.27,WeatherSnoop3.0,2013-10-31 23:58:00,
2013-10-31 19:04:00,60.2,33.1,29.78,NW,323,0.0,-999.0,36,0.00,,,0.27,WeatherSnoop3.0,2013-11-01 00:04:00,
2013-10-31 19:09:00,59.5,33.9,29.78,NW,323,0.0,-999.0,38,0.00,,,0.27,WeatherSnoop3.0,2013-11-01 00:09:00,
2013-10-31 19:14:00,58.7,31.1,29.78,NW,323,0.0,-999.0,35,0.00,,,0.27,WeatherSnoop3.0,2013-11-01 00:14:00,
2013-10-31 19:20:00,58.1,29.9,29.78,NW,323,0.0,-999.0,34,0.00,,,0.27,WeatherSnoop3.0,2013-11-01 00:20:00,
2013-10-31 19:25:00,58.0,30.5,29.78,NW,323,0.0,-999.0,35,0.00,,,0.27,WeatherSnoop3.0,2013-11-01 00:25:00,
2013-10-31 19:30:00,57.6,32.2,29.78,NW,323,0.0,-999.0,38,0.00,,,0.27,WeatherSnoop3.0,2013-11-01 00:30:00,
2013-10-31 19:36:00,57.5,30.1,29.79,NW,323,0.0,-999.0,35,0.00,,,0.27,WeatherSnoop3.0,2013-11-01 00:36:00,
2013-10-31 19:42:00,57.2,32.5,29.79,NNW,329,0.0,-999.0,39,0.00,,,0.27,WeatherSnoop3.0,2013-11-01 00:42:00,
2013-10-31 19:47:00,56.9,29.5,29.80,NNW,329,0.0,-999.0,35,0.00,,,0.27,WeatherSnoop3.0,2013-11-01 00:47:00,
2013-10-31 19:52:00,56.9,30.2,29.80,NNW,329,0.0,-999.0,36,0.00,,,0.27,WeatherSnoop3.0,2013-11-01 00:52:00,
2013-10-31 19:57:00,57.0,28.9,29.80,NNW,329,0.0,-999.0,34,0.00,,,0.27,WeatherSnoop3.0,2013-11-01 00:57:00,
2013-10-31 20:03:00,57.2,28.4,29.81,NNW,329,0.0,-999.0,33,0.00,,,0.27,WeatherSnoop3.0,2013-11-01 01:03:00,
2013-10-31 20:09:00,57.2,28.4,29.81,NNW,329,0.0,-999.0,33,0.00,,,0.27,WeatherSnoop3.0,2013-11-01 01:09:00,
2013-10-31 20:14:00,56.7,30.7,29.81,NNW,329,0.0,-999.0,37,0.00,,,0.27,WeatherSnoop3.0,2013-11-01 01:14:00,
2013-10-31 20:20:00,55.9,38.5,29.81,NNW,329,0.0,-999.0,52,0.00,,,0.27,WeatherSnoop3.0,2013-11-01 01:20:00,
2013-10-31 20:26:00,55.0,40.0,29.81,NNW,329,0.0,-999.0,57,0.00,,,0.27,WeatherSnoop3.0,2013-11-01 01:26:00,
2013-10-31 20:31:00,54.2,39.3,29.82,NNW,329,0.0,-999.0,57,0.00,,,0.27,WeatherSnoop3.0,2013-11-01 01:31:00,
2013-10-31 20:36:00,53.9,38.1,29.82,NNW,329,0.0,-999.0,55,0.00,,,0.27,WeatherSnoop3.0,2013-11-01 01:36:00,
2013-10-31 20:42:00,53.5,38.2,29.82,NNW,329,1.0,-999.0,56,0.00,,,0.27,WeatherSnoop3.0,2013-11-01 01:42:00,
2013-10-31 20:47:00,53.2,39.7,29.83,West,280,0.0,-999.0,60,0.00,,,0.27,WeatherSnoop3.0,2013-11-01 01:47:00,
2013-10-31 20:52:00,52.5,40.3,29.83,West,280,0.0,-999.0,63,0.00,,,0.27,WeatherSnoop3.0,2013-11-01 01:52:00,
2013-10-31 20:57:00,52.2,39.6,29.83,West,280,0.0,-999.0,62,0.00,,,0.27,WeatherSnoop3.0,2013-11-01 01:57:00,
2013-10-31 21:03:00,51.7,39.9,29.83,West,280,0.0,-999.0,64,0.00,,,0.27,WeatherSnoop3.0,2013-11-01 02:03:00,
2013-10-31 21:09:00,51.1,40.1,29.83,West,280,0.0,-999.0,66,0.00,,,0.27,WeatherSnoop3.0,2013-11-01 02:09:00,
2013-10-31 21:15:00,50.8,40.6,29.83,West,280,0.0,-999.0,68,0.00,,,0.27,WeatherSnoop3.0,2013-11-01 02:15:00,
2013-10-31 21:20:00,50.4,39.9,29.82,West,280,0.0,-999.0,67,0.00,,,0.27,WeatherSnoop3.0,2013-11-01 02:20:00,
2013-10-31 21:25:00,50.2,39.3,29.82,West,280,0.0,-999.0,66,0.00,,,0.27,WeatherSnoop3.0,2013-11-01 02:25:00,
2013-10-31 21:30:00,50.4,37.9,29.82,West,280,0.0,-999.0,62,0.00,,,0.27,WeatherSnoop3.0,2013-11-01 02:30:00,
2013-10-31 21:36:00,50.1,39.2,29.83,West,280,0.0,-999.0,66,0.00,,,0.27,WeatherSnoop3.0,2013-11-01 02:36:00,
2013-10-31 21:42:00,49.6,39.1,29.83,West,280,0.0,-999.0,67,0.00,,,0.27,WeatherSnoop3.0,2013-11-01 02:42:00,
2013-10-31 21:47:00,49.1,39.7,29.83,West,280,0.0,-999.0,70,0.00,,,0.27,WeatherSnoop3.0,2013-11-01 02:47:00,
2013-10-31 21:52:00,48.6,38.9,29.83,West,280,0.0,-999.0,69,0.00,,,0.27,WeatherSnoop3.0,2013-11-01 02:52:00,
2013-10-31 21:58:00,48.8,37.6,29.83,West,280,0.0,-999.0,65,0.00,,,0.27,WeatherSnoop3.0,2013-11-01 02:58:00,
2013-10-31 22:03:00,49.1,37.1,29.82,West,280,0.0,-999.0,63,0.00,,,0.27,WeatherSnoop3.0,2013-11-01 03:03:00,
2013-10-31 22:08:00,49.2,37.9,29.82,West,280,0.0,-999.0,65,0.00,,,0.27,WeatherSnoop3.0,2013-11-01 03:08:00,
2013-10-31 22:14:00,49.2,38.7,29.82,West,274,0.0,-999.0,67,0.00,,,0.27,WeatherSnoop3.0,2013-11-01 03:14:00,
2013-10-31 22:19:00,49.2,38.7,29.82,West,274,0.0,-999.0,67,0.00,,,0.27,WeatherSnoop3.0,2013-11-01 03:19:00,
2013-10-31 22:24:00,49.1,39.4,29.82,West,274,0.0,-999.0,69,0.00,,,0.27,WeatherSnoop3.0,2013-11-01 03:24:00,
2013-10-31 22:30:00,48.8,40.9,29.82,West,268,0.0,-999.0,74,0.00,,,0.27,WeatherSnoop3.0,2013-11-01 03:30:00,
2013-10-31 22:35:00,48.5,40.9,29.82,West,278,0.0,-999.0,75,0.00,,,0.27,WeatherSnoop3.0,2013-11-01 03:35:00,
2013-10-31 22:40:00,48.0,40.8,29.82,West,278,0.0,-999.0,76,0.00,,,0.27,WeatherSnoop3.0,2013-11-01 03:40:00,
2013-10-31 22:45:00,47.6,40.4,29.82,West,278,0.0,-999.0,76,0.00,,,0.27,WeatherSnoop3.0,2013-11-01 03:45:00,
2013-10-31 22:50:00,47.3,39.8,29.82,West,278,0.0,-999.0,75,0.00,,,0.27,WeatherSnoop3.0,2013-11-01 03:50:00,
2013-10-31 22:56:00,47.3,38.4,29.82,West,278,0.0,-999.0,71,0.00,,,0.27,WeatherSnoop3.0,2013-11-01 03:56:00,
2013-10-31 23:01:00,47.4,37.7,29.83,West,278,0.0,-999.0,69,0.00,,,0.27,WeatherSnoop3.0,2013-11-01 04:01:00,
2013-10-31 23:02:00,47.4,37.7,29.83,West,278,0.0,-999.0,69,0.00,,,0.27,WeatherSnoop3.0,2013-11-01 04:02:00,
2013-10-31 23:03:00,47.6,37.9,29.83,West,278,1.0,-999.0,69,0.00,,,0.27,WeatherSnoop3.0,2013-11-01 04:03:00,
2013-10-31 23:04:00,47.6,37.9,29.83,West,278,0.0,-999.0,69,0.00,,,0.27,WeatherSnoop3.0,2013-11-01 04:04:00,
2013-10-31 23:05:00,47.7,38.4,29.83,West,278,0.0,-999.0,70,0.00,,,0.27,WeatherSnoop3.0,2013-11-01 04:05:00,
2013-10-31 23:11:00,47.9,38.6,29.83,West,278,0.0,-999.0,70,0.00,,,0.27,WeatherSnoop3.0,2013-11-01 04:11:00,
2013-10-31 23:17:00,47.7,38.0,29.82,West,278,0.0,-999.0,69,0.00,,,0.27,WeatherSnoop3.0,2013-11-01 04:17:00,
2013-10-31 23:22:00,47.7,38.0,29.82,West,278,0.0,-999.0,69,0.00,,,0.27,WeatherSnoop3.0,2013-11-01 04:22:00,
2013-10-31 23:27:00,47.6,37.6,29.82,NW,308,0.0,-999.0,68,0.00,,,0.27,WeatherSnoop3.0,2013-11-01 04:27:00,
2013-10-31 23:33:00,47.9,37.5,29.83,NW,315,0.0,-999.0,67,0.00,,,0.27,WeatherSnoop3.0,2013-11-01 04:33:00,
2013-10-31 23:38:00,48.0,37.2,29.83,NW,315,0.0,-999.0,66,0.00,,,0.27,WeatherSnoop3.0,2013-11-01 04:38:00,
2013-10-31 23:43:00,48.0,37.6,29.83,NW,315,0.0,-999.0,67,0.00,,,0.27,WeatherSnoop3.0,2013-11-01 04:43:00,
2013-10-31 23:49:00,48.0,36.8,29.82,NW,315,0.0,-999.0,65,0.00,,,0.27,WeatherSnoop3.0,2013-11-01 04:49:00,
2013-10-31 23:54:00,48.0,38.0,29.82,WNW,296,0.0,-999.0,68,0.00,,,0.27,WeatherSnoop3.0,2013-11-01 04:54:00,